Regional Weather Roundup
Issued by NWS Little Rock, AR

Home | Current Version | Previous Version | Graphics & Text | Print | Product List | Glossary On
Versions: 1 2 3 4 5 6 7 8 9 10 11 12 13 14 15 16 17 18 19 20 21 22 23 24 25 26 27 28 29 30 31 32 33 34 35 36 37 38 39 40 41 42 43 44 45 46 47 48 49 50
000
ASUS44 KLZK 232005
RWRLZK

WEATHER ROUNDUP FOR ARKANSAS
NATIONAL WEATHER SERVICE LITTLE ROCK AR
300 PM CDT SAT MAY 23 2015

NOTE: "FAIR" INDICATES FEW OR NO CLOUDS BELOW 12,000 FEET WITH NO
SIGNIFICANT WEATHER AND/OR OBSTRUCTIONS TO VISIBILITY.

ARZ001-003-010-029-232100-
NORTHWEST ARKANSAS

CITY           SKY/WX    TMP DP  RH WIND       PRES   REMARKS
FAYETTEVILLE   PTSUNNY   74  65  73 S9G20     30.13F
FORT SMITH     PTSUNNY   77  63  61 E12       30.10F
HARRISON       CLOUDY    68  60  75 E9        30.20F
BENTONVILLE    MOSUNNY   73  61  64 SE13      30.14F
ROGERS         PTSUNNY   73  63  70 E16       30.14F
SILOAM SPGS    MOSUNNY   73  63  68 SE15      30.13F
HIGHFILL       PTSUNNY   74  63  68 SE18      30.13F
SPRINGDALE     PTSUNNY   73  63  68 SE12G18   30.16F
$$

ARZ004-005-016-232100-
NORTH CENTRAL ARKANSAS

CITY           SKY/WX    TMP DP  RH WIND       PRES   REMARKS
BATESVILLE     PTSUNNY   79  59  50 E9        30.21F
FLIPPIN        MOSUNNY   70  59  68 E7        30.19F
MTN HOME       PTSUNNY   72  59  63 E9        30.20F
$$

ARZ040-041-232100-
WEST CENTRAL ARKANSAS

CITY           SKY/WX    TMP DP  RH WIND       PRES   REMARKS
MENA           CLOUDY    79  68  69 E5        30.13F
MOUNT IDA      PTSUNNY   77  65  66 SE7       30.13F
$$

ARZ009-017-025-026-028-232100-
NORTHEAST ARKANSAS

CITY           SKY/WX    TMP DP  RH WIND       PRES   REMARKS
CORNING          N/A     77  55  47 E7        30.24F
JONESBORO      SUNNY     78  56  46 E8        30.22F
NEWPORT        SUNNY     79  59  50 VRB3      30.23F
WALNUT RIDGE   MOSUNNY   79  54  41 E6        30.23F
BLYTHEVILLE    MOSUNNY   78  57  48 E6        30.24F
$$

ARZ022-023-033-042-044-232100-
CENTRAL ARKANSAS

CITY           SKY/WX    TMP DP  RH WIND       PRES   REMARKS
LITTLE ROCK    PTSUNNY   79  61  53 SE10      30.18F
N LITTLE ROCK  PTSUNNY   78  65  65 E10       30.18F
JACKSONVILLE   PTSUNNY   80  64  58 E9        30.18F
SEARCY         MOSUNNY   80  62  54 E8        30.21F
HOT SPRINGS    PTSUNNY   81  65  58 E12       30.15F
RUSSELLVILLE   CLOUDY    76  63  64 VRB7      30.16F
CLINTON        FAIR      77  63  61 E7        30.19F
$$

ARZ036-232100-
EAST ARKANSAS

CITY           SKY/WX    TMP DP  RH WIND       PRES   REMARKS
WEST MEMPHIS   MOSUNNY   80  58  46 SE9       30.21F
$$

ARZ050-053-066-070-073-232100-
SOUTHWEST ARKANSAS

CITY           SKY/WX    TMP DP  RH WIND       PRES   REMARKS
ARKADELPHIA    FAIR      84  69  60 SE7       30.14F HX  87
CAMDEN         MOSUNNY   86  64  48 NE8G20    30.14F HX  87
TEXARKANA      PTSUNNY   83  69  62 SE14G22   30.10F HX  86
EL DORADO      MOSUNNY   84  68  58 SE12G20   30.14F HX  87
DE QUEEN       PTSUNNY   81  69  67 SE9G18    30.08F
$$

ARZ056-057-069-232100-
SOUTHEAST ARKANSAS

CITY           SKY/WX    TMP DP  RH WIND       PRES   REMARKS
PINE BLUFF     MOSUNNY   83  65  54 E9        30.17F HX  85
STUTTGART      MOSUNNY   81  63  54 MISG      30.20F
MONTICELLO     PTSUNNY   82  65  56 SE8       30.18F

$$




USA.gov is the U.S. government's official web portal to all federal, state and local government web resources and services.